Current weather by "City, St" or "zip code"  
 

Current Conditions: Norwood, Norwood Memorial Airport, MA

Fair


63.0 F

Last Updated on Sep 18 2020, 1:53 am EDT
Humidity: 65%
Wind Speed: NE 5.8 mph
Barometer 29.98 in
Dewpoint: 51.1 F
Visibility: 10.00 mi
Precip: --
Heat Index: NA
Wind Chill: 63 F
Current conditions at:

Norwood, Norwood Memorial Airport, MA (KOWD)

Lat: 42.19083 Lon: 71.17389

Local Radar Image active severe weather and emergency alerts image image weather storm and storm spotter reports image weather observation monitoring service image
Local
Radar
Active
Alerts
Storm Reports Obs
Monitoring

Sign-up For Email & Text Message Weather Alert Notification Services



Advertise Here

Observation History for Norwood, Norwood Memorial Airport, MA


Time Wind
(mph)
Vis
(mi)
Weather Precip (in) Temperature (F) Relative
Humidity
Wind
Chill
(F)
Heat
Index
(F)
Pressure
Air Dwpt altimeter
(in)
sea level
(mb)
Rmks
1:53 am EDT NE 5.8 10.00 Fair -- 63.0 51.1 65% 63 NA 29.98 1015.2
12:53 am EDT NE 6.9 10.00 Fair -- 63.0 52.0 68% 63 NA 30.00 1015.7
11:53 pm EDT N 5.8 10.00 Fair -- 64.0 54.0 70% NA NA 30.00 1015.8
10:53 pm EDT NE 4.6 10.00 Fair -- 64.0 55.9 75% NA NA 30.00 1015.7
9:53 pm EDT N 3.5 10.00 Fair -- 63.0 55.9 78% NA NA 29.99 1015.6
8:53 pm EDT N 0.0 10.00 Fair -- 61.0 55.0 81% NA NA 29.99 1015.4
7:53 pm EDT N 0.0 10.00 Fair -- 63.0 55.9 78% NA NA 29.98 1015.2
6:53 pm EDT N 0.0 10.00 Fair -- 66.0 57.0 73% NA NA 29.96 1014.6
5:53 pm EDT W 4.6 10.00 Fair -- 73.0 54.0 51% NA NA 29.96 1014.4
4:53 pm EDT W 8.1 10.00 Fair -- 75.0 53.1 46% NA NA 29.96 1014.3
3:53 pm EDT SW 10.4 10.00 Fair -- 77.0 55.0 47% NA NA 29.96 1014.6
2:53 pm EDT W 10.4 10.00 A Few Clouds -- 77.0 55.9 48% NA NA 29.97 1014.7
1:53 pm EDT SW 10.4 G 18.4 10.00 Fair -- 77.0 55.9 48% NA NA 29.97 1014.9
12:53 pm EDT SW 12.7 G 20.7 10.00 Fair -- 77.0 57.0 50% NA NA 29.99 1015.5
11:53 am EDT W 11.5 G 16.1 10.00 Fair -- 76.0 57.0 52% NA NA 30.00 1016.0
10:53 am EDT SW 12.7 G 19.6 10.00 Fair -- 72.0 55.9 57% NA NA 30.03 1016.8
9:53 am EDT SW 8.1 10.00 Fair -- 69.0 57.0 66% NA NA 30.04 1017.2
8:53 am EDT SW 5.8 10.00 Fair -- 65.0 55.9 73% NA NA 30.04 1017.1
7:53 am EDT N 0.0 10.00 Fair -- 58.0 55.0 90% NA NA 30.04 1017.1
6:53 am EDT N 0.0 10.00 Fog -- 52.0 50.0 93% NA NA 30.04 1017.1
5:53 am EDT N 0.0 0.25 Fog -- 52.0 48.9 89% NA NA 30.04 1017.1
4:53 am EDT N 0.0 3.00 Fog/Mist -- 51.0 48.9 92% NA NA 30.05 1017.4
3:53 am EDT S 3.5 10.00 Fair -- 58.0 54.0 87% NA NA 30.05 1017.5
2:53 am EDT SW 3.5 10.00 A Few Clouds -- 61.0 55.9 84% NA NA 30.05 1017.7

Regional Weather Observation


Norwood, Norwood Memorial Airport, MA (KOWD)

Fair
63.0 F

East Milton, MA (KMQE)

NULL
59.0 F

Boston, Logan International Airport, MA (KBOS)

Overcast
61.0 F

Fitchburg, Fitchburg Municipal Airport, MA (KFIT)

Mostly Cloudy
58.0 F

Worcester, Worcester Regional Airport, MA (KORH)

Fair
58.0 F

Nashua - Boire Field Airport, NH (KASH)

Overcast
61.0 F